Location: Unspecified
(0.0000°N, 0.0000°E)
Time: 14:59:48
(UTC+00:00)

Tiangong 2 - Visible Passes

Search period start: 20 February 2018 00:00
Search period end: 02 March 2018 00:00
Orbit: 384 x 388 km, 42.8° (Epoch: 20 February)

Date Brightness Start Highest point End Pass type
(mag) Time Alt. Az. Time Alt. Az. Time Alt. Az.
26 Feb 3.8 19:28:19 10° N 19:28:21 10° N 19:28:21 10° N visible
27 Feb 4.2 20:05:17 10° WNW 20:05:41 13° WNW 20:05:41 13° WNW visible
28 Feb 1.1 19:06:13 10° NW 19:09:19 57° NE 19:10:50 26° ESE visible
01 Mar 3.9 19:44:55 10° W 19:46:57 16° SW 19:48:21 13° SSW visible
